Regional Weather Roundup
Issued by NWS Bismarck, ND

Home | Current Version | Previous Version | Text Only | Print | Product List | Glossary On
Versions: 1 2 3 4 5 6 7 8 9 10 11 12 13 14 15 16 17 18 19 20 21 22 23 24 25 26 27 28 29 30 31 32 33 34 35 36 37 38 39 40 41 42 43 44 45 46 47 48 49 50
000
ASUS43 KBIS 140020
RWRBIS

NWR BROADCAST TEXT
NATIONAL WEATHER SERVICE BISMARCK ND
700 PM CDT SUN JUL 13 2014

NOTE: "FAIR" INDICATES FEW OR NO CLOUDS BELOW 12,000 FEET WITH NO
SIGNIFICANT WEATHER AND/OR OBSTRUCTIONS TO VISIBILITY.


CITY           SKY/WX    TMP DP  RH WIND       PRES   REMARKS
WILLISTON      SUNNY     76  35  22 NW20G29   30.11S
MINOT          PTSUNNY   67  45  45 NW21G30   30.04R
MINOT AFB      MOSUNNY   70  46  42 N17       30.04R
BISMARCK       SUNNY     74  41  30 NW22G28   30.04F
DICKINSON      SUNNY     73  37  27 NW20G30   30.09F
GARRISON         N/A     71  45  39 NW23G30   30.05S
HETTINGER ARPT SUNNY     75  40  28 N16       30.11F
JAMESTOWN      PTSUNNY   69  44  40 NW22G29   29.97S
CARRINGTON     MOCLDY    66  46  48 NW17G26   30.00R
CROSBY         FAIR      66  46  48 NW23G29   30.12R
HARVEY         FAIR      66  48  52 N18G25    30.01R
HAZEN          FAIR      72  41  33 N14G26    30.06S
LINTON         FAIR      73  41  31 NW20G26   30.03S
MANDAN         FAIR      72  39  30 NW17G28   30.05S
RUGBY          FAIR      64  48  55 N17G23    30.01R
STANLEY          N/A     66  43  42 N21G31    30.09R
TIOGA          FAIR      66  41  39 NW18G29   30.13S
WATFORD CITY   FAIR      72  39  30 NW15G25   30.08F
$$

CITY           SKY/WX    TMP DP  RH WIND       PRES   REMARKS
GRAND FORKS    CLOUDY    65  47  52 NW12G20   29.92S
GRAND FORKS AF PTSUNNY   65  46  50 NW16      29.94R
DEVILS LAKE    CLOUDY    64  45  48 N23G30    29.97S
FARGO          PTSUNNY   71  46  40 NW22      29.91S
CANDO          CLOUDY    63  46  55 N18G25    30.00S
CAVALIER       MOCLDY    63  46  55 NW17G24   29.93S
GRAFTON        MOCLDY    64  46  52 NW14G23   29.93R
GWINNER        PTCLDY    73  45  35 NW15G24   29.96S
LANGDON        CLOUDY    59  46  63 NW13G22   29.96S
ROLLA          CLOUDY    59  45  58 N17       30.02S
WALHALLA         N/A     61  46  59 NW18G26     N/A
$$

CITY           SKY/WX    TMP DP  RH WIND       PRES   REMARKS
ABERDEEN       SUNNY     75  41  29 NW18      29.98F
MOBRIDGE       SUNNY     75  45  34 NW14G26   30.01S
BUFFALO          N/A     77  47  34 N23G31    30.06S
RAPID CITY     CLOUDY    83  54  36 NE14      30.11S
SIDNEY         SUNNY     75  37  25 NW20      30.14R
GLENDIVE       SUNNY     79  41  25 N18       30.14S
$$

CITY           SKY/WX    TMP DP  RH WIND       PRES   REMARKS
BILLINGS       MOSUNNY   88  45  22 NE16      30.17S
REGINA         MOSUNNY   66  46  48 N16G29    30.16R
ESTEVAN        MOSUNNY   68  46  45 N16G24    30.11R
$$




USA.gov is the U.S. government's official web portal to all federal, state and local government web resources and services.